Regional Weather Roundup
Issued by NWS

Home | Current Version | Previous Version | Text Only | Print | Product List | Glossary On
Versions: 1 2 3 4 5 6 7 8 9 10 11 12 13 14 15 16 17 18 19 20 21 22 23 24 25 26 27 28 29 30 31 32 33 34 35 36 37 38 39 40 41 42 43 44 45 46 47 48 49 50
000
ASUS45 KPSR 021700
RWRAZ

ARIZONA HOURLY REGIONAL WEATHER ROUNDUP
NATIONAL WEATHER SERVICE PHOENIX AZ
1000 AM MST THU JUL 02 2015

NOTE: FAIR INDICATES FEW OR NO CLOUDS BELOW 12,000 FEET WITH NO
SIGNIFICANT WEATHER AND/OR OBSTRUCTIONS TO VISIBILITY.

AZZ001>003-036-021800-
NORTHWEST ARIZONA

CITY           SKY/WX    TMP DP  RH WIND       PRES   REMARKS
KINGMAN        SUNNY     88  52  29 SW8       30.08F
$$

AZZ004>008-015-016-018-021800-
NORTH CENTRAL ARIZONA

CITY           SKY/WX    TMP DP  RH WIND       PRES   REMARKS
WILLIAMS       SUNNY     73  57  56 VRB5      30.38S
FLAGSTAFF      NOT AVBL
PAYSON         SUNNY     82  57  42 W10       30.20F
PAGE           MOSUNNY   89  52  28 N3        30.09S
$$

AZZ009>014-017-021800-
NORTHEAST ARIZONA

CITY           SKY/WX    TMP DP  RH WIND       PRES   REMARKS
WINSLOW        NOT AVBL
SAINT JOHNS    MOSUNNY   75  55  49 NW3       30.21F
WINDOW ROCK    MOSUNNY   79  51  37 W5        30.28S
SHOW LOW       SUNNY     77  46  33 N3        30.27F
$$

AZZ023-021800-
GREATER PHOENIX AREA

CITY           SKY/WX    TMP DP  RH WIND       PRES   REMARKS
PHOENIX        MOSUNNY   95  57  27 W7        29.91S
GLENDALE       MOSUNNY   95  57  28 S9        29.93S
LUKE AFB       SUNNY     95  59  30 SW10      29.90F
DEER VALLEY    SUNNY     94  57  28 W12       29.93S
SCOTTSDALE     SUNNY     94  57  28 VRB5      29.94F
MESA-GATEWAY   MOSUNNY   91  57  31 W8        29.95F
$$

AZZ027-028-021800-
SOUTHWEST MARICOPA COUNTY AND PINAL COUNTY

CITY           SKY/WX    TMP DP  RH WIND       PRES   REMARKS
CASA GRANDE    SUNNY     93  59  31 W7        29.94S
GILA BEND      SUNNY     95  59  30 W7        29.90F
$$

AZZ503-504-507>509-021800-
SOUTHEAST ARIZONA

CITY           SKY/WX    TMP DP  RH WIND       PRES   REMARKS
TUCSON         SUNNY     89  59  36 VRB5      30.04F
DAVIS-MONTHAN  SUNNY     87  62  43 NW5       30.02F
RYAN FIELD     SUNNY     90  61  37 NW5       30.02F
NOGALES        SUNNY     83  62  49 VRB6      30.12S
SIERRA VISTA   SUNNY     82  58  43 W5        30.17S
SAFFORD        SUNNY     92  58  31 W18G26    29.99F
$$

AZZ020-021-025-026-031-021800-
SOUTHWEST ARIZONA

CITY           SKY/WX    TMP DP  RH WIND       PRES   REMARKS
YUMA           MOSUNNY   93  69  45 SW7       29.88F
$$

CAZ031-033-041-043-047-048-061-021800-
SOUTHERN CALIFORNIA

CITY           SKY/WX    TMP DP  RH WIND       PRES   REMARKS
DOWNTOWN L.A.  PTSUNNY   72  61  68 CALM      29.99S
L.A. AIRPORT   PTSUNNY   68  63  84 W8        30.00S
SAN DIEGO      CLOUDY    69  64  84 S3        30.02F
BURBANK        PTSUNNY   78  58  49 SE6       29.99S
ONTARIO        PTSUNNY   81  58  45 VRB3      29.99F
RIVERSIDE      PTSUNNY   82  60  47 CALM      29.99S
PALM SPRINGS   MOSUNNY   92  65  40 VRB6      29.91F
EL CENTRO NAS  MOSUNNY   94  62  34 VRB3      29.88F
IMPERIAL       SUNNY     92  68  45 CALM      29.86F
BLYTHE         SUNNY     93  66  40 VRB5      29.88F
$$

NVZ020-UTZ003-021800-
SOUTHERN NEVADA-UTAH

CITY           SKY/WX    TMP DP  RH WIND       PRES   REMARKS
LAS VEGAS      NOT AVBL
SALT LAKE CITY MOSUNNY   90  57  32 NW7       30.07F
$$

NMZ009-TXZ055-021800-
NEW MEXICO-WEST TEXAS

CITY           SKY/WX    TMP DP  RH WIND       PRES   REMARKS
ALBUQUERQUE    MOSUNNY   85  52  32 NW8       30.14F
EL PASO        PTSUNNY   90  52  27 NE9       30.03R
$$


........................KEY........................
SKY/WX - SKY CONDITION/WEATHER
TMP    - TEMPERATURE IN FAHRENHEIT
DP     - DEW POINT IN FAHRENHEIT
RH     - RELATIVE HUMIDITY IN PERCENT
WIND   - DIRECTION AND SPEED IN MILES PER HOUR (MPH)
VRB    - VARIABLE WIND DIRECTION
PRES   - MEAN SEA LEVEL PRESSURE IN INCHES OF MERCURY
         F - FALLING PRESSURE   R - RISING PRESSURE
         S - STEADY PRESSURE
VSB    - VISIBILITY IN MILES
HX     - HEAT INDEX IN FAHRENHEIT
WCI    - WIND CHILL INDEX IN FAHRENHEIT
TC     - TEMPERATURE IN CELSIUS WHICH IS ALSO KNOWN AS
         TEMPERATURE IN CENTIGRADE
AFB    - AIR FORCE BASE
         LUKE AFB IS LUKE AIR FORCE BASE
         DAVIS-MONTHAN IS DAVIS-MONTHAN AIR FORCE BASE
NAS    - NAVAL AIR STATION
         EL CENTRO NAS IS EL CENTRO NAVAL AIR STATION
N/A    - NOT AVAILABLE



USA.gov is the U.S. government's official web portal to all federal, state and local government web resources and services.